Regional Weather Roundup
Issued by NWS

Home | Current Version | Previous Version | Text Only | Print | Product List | Glossary Off
Versions: 1 2 3 4 5 6 7 8 9 10 11 12 13 14 15 16 17 18 19 20 21 22 23 24 25 26 27 28 29 30 31 32 33 34 35 36 37 38 39 40 41 42 43 44 45 46 47 48 49 50

338
ASUS43 KMPX 051310
RWRMN
WEATHER ROUNDUP FOR MINNESOTA
NATIONAL WEATHER SERVICE TWIN CITIES/CHANHASSEN MN
700 AM CST MON DEC 05 2016


NOTE: "FAIR" INDICATES FEW OR NO CLOUDS BELOW 12,000 FEET WITH NO
SIGNIFICANT WEATHER AND/OR OBSTRUCTIONS TO VISIBILITY. N/A MEANS
CURRENT SKY AND/OR WEATHER CONDITIONS ARE NOT AVAILABLE.

MNZ060>063-068>070-051400-
   Twin Cities Metro

CITY           SKY/WX    TMP DP  RH WIND       PRES   REMARKS
TWIN CITIES    MOCLDY    30  27  88 SE6       29.78S WCI  24
ST PAUL        PTCLDY    29  29 100 SE6       29.80F WCI  23
CRYSTAL        PTCLDY    28  25  88 SE3       29.76S
BLAINE         PTCLDY    28  28 100 E5        29.76F WCI  23
LAKEVILLE      PTCLDY    25  25 100 CALM      29.77F
EDEN PRAIRIE   MOCLDY    29  26  89 E3        29.75F
SOUTH ST PAUL  PTCLDY    29  29  99 SE3       29.78F
LAKE ELMO      FOG       23  21  93 CALM      29.79F VSB 1
$$
MNZ001>005-007-008-013>017-022>024-027-028-051400-
   Northwest Minnesota

CITY           SKY/WX    TMP DP  RH WIND       PRES   REMARKS
BEMIDJI        CLOUDY    27  25  94 SE3       29.69F
HALLOCK        CLOUDY    28  27  93 E3        29.69F
ROSEAU         CLOUDY    30  25  80 NW5       29.71R WCI  25
WARROAD        CLOUDY    30  27  86 W5        29.71R WCI  25
THIEF RVR FALL CLOUDY    26  25  96 SE9       29.71R WCI  17
CROOKSTON      CLOUDY    27  27 100 SE9       29.71R FOG     WCI  17
FOSSTON        CLOUDY    25  25 100 E3        29.70R
DETROIT LAKES  CLEAR     23  23 100 E3        29.68S
MOORHEAD       CLEAR     21  19  93 E5        29.68S WCI  15
PARK RAPIDS    FOG       26  23  88 SE6       29.71R VSB 1/4 WCI  19
$$
MNZ006-009>011-018-025>026-051400-
   North Central Minnesota

CITY           SKY/WX    TMP DP  RH WIND       PRES   REMARKS
BAUDETTE       CLOUDY    29  25  85 W7        29.69R WCI  22
FLAG ISLAND    CLOUDY    30  28  93 W7        29.68R WCI  23
INTL FALLS     CLOUDY    29  27  92 W8        29.70R WCI  21
WASKISH        CLOUDY    28  27  93 NW3       29.71F
BIG FORK       CLOUDY    28  27  93 CALM      29.73R
LONGVILLE      CLOUDY    27  25  93 CALM      29.72S
GRAND RAPIDS   CLOUDY    29  26  89 CALM      29.75R
CRANE LAKE     CLOUDY    28  27  93 CALM      29.73R
ORR            CLOUDY    28  25  86 CALM      29.70R
COOK           CLOUDY    28  25  86 W5        29.73R WCI  23
$$
MNZ012-019>021-037-051400-
   Northeast Minnesota

CITY           SKY/WX    TMP DP  RH WIND       PRES   REMARKS
DULUTH         CLOUDY    31  27  85 W7        29.75R WCI  24
ELY            CLOUDY    28  27  93 W9        29.71R WCI  20
HIBBING        CLOUDY    28  25  88 CALM      29.73R
EVELETH        CLOUDY    30  27  88 SW5       29.74R WCI  25
DULUTH HARBOR  CLOUDY    36  30  80 SW6       29.79R
TWO HARBORS    PTCLDY    34  28  80 W6        29.74R WCI  29
SILVER BAY     CLOUDY    32  28  86 SW3       29.72R
GRAND MARAIS     N/A     34  30  85 W6        29.73R WCI  29
G MARAIS ARPRT CLOUDY    27  23  86 W7        29.68R WCI  19
$$
MNZ029>031-032-039>041-046>048-054>057-064-051400-
   West Central Minnesota

CITY           SKY/WX    TMP DP  RH WIND       PRES   REMARKS
FERGUS FALLS   CLOUDY    27  27 100 E6        29.71S WCI  20
WHEATON        CLEAR    N/A N/A N/A E10       29.66S
MORRIS         CLEAR     27  27 100 SE8       29.65S WCI  18
ALEXANDRIA     CLEAR     25  24  96 E8        29.68F WCI  16
ELBOW LAKE     FAIR      28  26  95 CALM      29.67S
WADENA         CLEAR     19  19 100 CALM      29.69S
GLENWOOD       CLEAR     25  25 100 E7        29.69R WCI  17
APPLETON       CLEAR     30  27  86 E10       29.64F WCI  21
BENSON         CLEAR     28  27  93 SE8       29.66F WCI  20
ORTONVILLE     PTCLDY    28  27  93 E10       29.63F WCI  19
MADISON        CLOUDY    30  30 100 E9        29.63F WCI  22
WILLMAR        FAIR      30  30 100 E9        29.69F WCI  22
$$
MNZ033>034-036-042>043-049>051-058-059-051400-
   Central Minnesota

CITY           SKY/WX    TMP DP  RH WIND       PRES   REMARKS
ST CLOUD       CLEAR     26  26 100 E5        29.73F WCI  20
PAYNESVILLE    CLEAR     27  28 100 SE7       29.71S WCI  20
AITKIN         CLOUDY    30  25  80 CALM      29.73S
PINE RIVER     CLOUDY    25  25 100 SE5       29.76F FOG     WCI  19
BRAINERD       FOG       22  21  96 CALM      29.73F VSB 1/2
STAPLES        CLEAR     19  19 100 CALM      29.71S
LONG PRAIRIE   FAIR      23  23 100 CALM      29.71S
LITTLE FALLS   CLEAR     27  25  93 CALM      29.72F
LITCHFIELD     PTCLDY    28  28 100 SE6       29.72F WCI  22
BUFFALO        PTCLDY    29  28  95 E3        29.76S
MAPLE LAKE     PTCLDY    30  29  99 SE3       29.74F
$$
MNZ037-044-045-052-053-051400-
   East Central Minnesota

CITY           SKY/WX    TMP DP  RH WIND       PRES   REMARKS
PRINCETON      CLEAR     27  25  93 CALM      29.75F FOG
MORA           FOG       21  19  93 CALM      29.78S VSB 1/4
CAMBRIDGE      CLEAR     28  27  93 CALM      29.75F FOG
RUSH CITY      CLEAR     25  25 100 SE3       29.78S
MOOSE LAKE     CLOUDY    30  28  93 S3        29.75S
HINCKLEY       FOG       27  27 100 CALM      29.77F VSB 1/4
CLOQUET        CLOUDY    30  27  86 W3        29.75S
MCGREGOR       CLOUDY    30  28  93 CALM      29.75F
$$
MNZ071>073-080-081-089-090-097-098-051400-
   Southwest Minnesota

CITY           SKY/WX    TMP DP  RH WIND       PRES   REMARKS
MONTEVIDEO     PTCLDY    30  30 100 S12       29.66F WCI  21
GRANITE FALLS  MOCLDY    33  31  93 E9        29.66F WCI  25
CANBY          PTCLDY    31  30  94 CALM      29.63F
MARSHALL       PTCLDY    34  30  85 SE8       29.63F WCI  27
REDWOOD FALLS  CLOUDY    32  29  88 E9        29.68F WCI  24
OLIVIA         MOCLDY    32  30  93 SE10      29.68F WCI  24
PIPESTONE      CLOUDY    34  30  86 S10       29.60F WCI  26
WINDOM         MOCLDY    36  30  80 SE13      29.67F
WORTHINGTON    CLOUDY    34  29  82 S15       29.64F WCI  24
JACKSON        CLOUDY    32  30  93 SE13      29.70F WCI  22
TRACY          CLOUDY    36  32  85 S10G17    29.63F
SLAYTON        CLOUDY    32  30  93 SE10      29.64F WCI  24
$$
MNZ065>067-074>077-082>085-091>093-051400-
   South Central Minnesota

CITY           SKY/WX    TMP DP  RH WIND       PRES   REMARKS
MANKATO        CLOUDY    33  31  92 SE9       29.76  WCI  25
NEW ULM        CLOUDY    34  30  86 SE14      29.71F WCI  24
ST JAMES       CLOUDY    34  32  93 SE12      29.72F WCI  25
FAIRMONT       CLOUDY    33  31  92 S14       29.73F WCI  23
GLENCOE        CLOUDY    32  32 100 SE6       29.73F WCI  27
FARIBAULT      CLOUDY    32  30  93 SE5       29.78S WCI  27
OWATONNA       PTCLDY    34  30  86 SE10      29.77F WCI  26
WASECA         CLOUDY    32  32 100 SE7       29.77F WCI  26
ALBERT LEA     CLOUDY    36  34  93 SE7       29.78S FOG
$$
MNZ078>079-086>088-094>096-051400-
   Southeast Minnesota

CITY           SKY/WX    TMP DP  RH WIND       PRES   REMARKS
ROCHESTER      CLOUDY    30  29  96 S12       29.81F WCI  20
RED WING       PTCLDY    30  28  93 SE7       29.80F WCI  23
STANTON        CLOUDY    33  31  91 S5        29.78S WCI  29
DODGE CENTER   CLOUDY    30  30 100 S10       29.79S FOG     WCI  21
WINONA         CLOUDY    34  32  93 SE3       29.86S
PRESTON        CLOUDY    29  28  97 S13       29.84S FOG     WCI  19
$$
ABBREVIATIONS USED IN REMARKS
   TC - TEMPERATURES IN CELSIUS
  WCI - WIND CHILL INDEX
   HX - HEAT INDEX
  VSB - VISIBILITY
$$




USA.gov is the U.S. government's official web portal to all federal, state and local government web resources and services.